www.pogodaiklimat.ru

Погода и климат >> Архив погоды >> Польша >> Nowy Sacz


ПОГОДА в Nowy Sacz

  • Прогноз погоды в Nowy Sacz
  • Монитор погоды в Nowy Sacz
  • Климат города

АРХИВ ПОГОДЫ в Nowy Sacz

Время (UTC), дата Ветер
(напр.,м/с)
 
Видим.   Явления Облачность Т
(С)
Тd
(С)
f
(%)
Тe
(С)
Тes
(С)
Комфортность P
(гПа)
Po
(гПа)
Тmin
(С)
Tmax
(С)
R
(мм)
R24
(мм)
S
(см)
04 6.12 штиль 0 3200 м дымка н/о -4.7 -5.5 94 -6 -6 1029.2 991.3
05 6.12 З 1 2000 м дымка н/о -5.6 -6.1 96 -8 -8 1029.0 991.0
06 6.12 штиль 0 4100 м дымка н/о -5.3 -5.8 96 -6 -6 1029.0 991.0 -5.7 -1.4
07 6.12 В 2 2700 м дымка н/о -4.9 -5.6 95 -9 -9 1028.7 990.8
08 6.12 В 1 2700 м дымка н/о -3.8 -4.3 96 -6 -6 1028.6 990.8
09 6.12 З 1 5000 м дымка н/о -2.3 -4.3 86 -5 -5 1028.3 990.7
10 6.12 З 1 4300 м дымка н/о -1.3 -4.0 82 -3 -3 1026.9 989.5
11 6.12 Ю 1 6000 м дымка н/о +0.8 -3.1 75 -1 -1 1025.5 988.5
12 6.12 Ю 1 9000 м дым н/о +1.7 -3.6 68 0 0 1025.0 988.1
13 6.12 Ю 1 10 км дым н/о +2.2 -3.7 65 +1 +1 1024.5 987.7
14 6.12 Ю 1 6000 м дым н/о +2.2 -4.1 63 +1 +1 1023.9 987.1
15 6.12 СВ 1 3000 м дымка н/о +1.2 -3.1 73 -0 -0 1024.2 987.3
16 6.12 Ю 1 4300 м дымка н/о +1.0 -4.1 69 -1 -1 1024.4 987.4
17 6.12 В 1 2600 м дымка н/о +1.2 -3.3 72 -0 -0 1023.9 987.0
18 6.12 Ю 1 7000 м дымка н/о +1.1 -3.6 71 -0 -0 1023.6 986.7 -5.8 +2.7
19 6.12 Ю 3 15 км н/о +1.5 -4.2 66 -2 -2 1023.0 986.1
20 6.12 Ю 2 14 км н/о +1.5 -4.2 66 -1 -1 1023.1 986.2
21 6.12 Ю 1 5000 м дым н/о +1.2 -4.1 68 -0 -0 1022.1 985.2
22 6.12 ЮЗ 1 10 км дым н/о +1.4 -4.1 67 0 0 1022.0 985.2
23 6.12 штиль 0 3200 м туман местами н/о +1.3 -3.2 72 +1 +1 1021.9 985.1
00 7.12 Ю 1 9000 м слабый ливневой снег н/о +1.1 -3.0 74 -1 -1 1020.9 984.1 0.0
01 7.12 Ю 1 9000 м ливневой дождь н/о +1.2 -2.0 79 -1 -1 1020.4 983.6
02 7.12 Ю 1 9000 м ливневой дождь н/о +1.4 -2.0 78 -0 -0 1020.6 983.8
03 7.12 Ю 1 8000 м слаб. ливневой дождь н/о +1.2 -1.2 84 -1 -1 1019.8 983.0
04 7.12 штиль 0 9000 м слабый дождь н/о +1.2 -0.7 87 0 0 1019.3 982.5
05 7.12 Ю 1 8000 м в посл. час дождь со снегом н/о +1.2 -0.1 91 -1 -1 1018.5 981.8
06 7.12 Ю 1 11 км дымка н/о +1.7 -0.9 83 0 0 1017.9 981.3 +0.8 +1.7 0.0
07 7.12 ЮЗ 1 3800 м дымка н/о +2.1 -0.8 81 +1 +1 1018.0 981.4
08 7.12 ЮЗ 2 14 км н/о +2.6 -0.5 80 -0 -0 1017.4 980.9
09 7.12 ЮЗ 1 16 км н/о +3.8 +0.3 78 +3 +3 1017.1 980.8
10 7.12 ЮЗ 2 16 км н/о +4.3 +0.4 76 +2 +2 1015.8 979.6
11 7.12 ЮЗ 2 18 км н/о +5.1 +0.5 72 +3 +3 1015.0 978.9
12 7.12 Ю 2 17 км н/о +5.2 +0.4 71 +3 +3 1014.5 978.4
13 7.12 З 1 15 км н/о +4.9 +0.7 74 +4 +4 1013.9 977.8
14 7.12 ЮЗ 1 14 км н/о +4.7 +0.5 74 +4 +4 1013.2 977.1
15 7.12 ЮЗ 1 6000 м дымка н/о +3.8 0.0 76 +3 +3 1013.0 976.8
16 7.12 ЮЗ 1 5000 м в посл. час снег н/о +3.6 -0.1 77 +2 +2 1012.5 976.3
17 7.12 ЮВ 2 7000 м в посл. час дождь со снегом н/о +3.7 -0.1 76 +1 +1 1012.0 975.8
18 7.12 Ю 2 11 км в посл. час дождь н/о +3.5 -0.3 76 +1 +1 1011.3 975.1 +1.7 +6.0 0.0
21 7.12 Ю 2 12 км н/о +2.7 -0.4 80 -0 -0 1009.2 973.0
00 8.12 ЮЗ 3 35 км н/о +2.4 -0.5 81 -2 -2 1007.2 971.0 0.0
01 8.12 Ю 2
{7}
11 км слабый дождь н/о +2.3 -0.3 83 -1 -1 1006.9 970.7
02 8.12 ЮЗ 1 4100 м дождь н/о +2.2 +0.4 88 +1 +1 1007.0 970.8
03 8.12 ЮЗ 2
{7}
6000 м слаб. дождь н/о +1.9 +1.0 94 -2 -2 1006.0 969.8
04 8.12 ЮЗ 2 6000 м слабый дождь н/о +1.9 +0.7 92 -2 -2 1006.8 970.6
05 8.12 ЮЗ 1 3500 м слабый дождь н/о +1.7 +0.8 94 -0 -0 1006.8 970.6
06 8.12 ЮЗ 2
{7}
8000 м морось н/о +2.4 +1.5 94 -1 -1 1007.3 971.1 +1.7 +3.4 4
07 8.12 ЮЗ 1 6000 м слабый дождь н/о +2.5 +1.5 93 +1 +1 1007.6 971.4
08 8.12 ЮЗ 2 8000 м ливневой дождь н/о +2.8 +1.8 93 -0 -0 1008.3 972.1
09 8.12 ЮВ 1 6000 м слаб. морось н/о +3.7 +2.5 92 +2 +2 1009.5 973.4
10 8.12 З 2
{18}
18 км в посл. час дождь со снегом н/о +5.8 +2.6 80 +3 +3 1009.3 973.5
11 8.12 З 3 11 км н/о +6.5 +2.4 75 +4 +4 1008.8 973.1
12 8.12 ЮЗ 2
{18}
16 км н/о +6.7 +2.4 74 +5 +5 1009.1 973.4 0.9
13 8.12 З 3 19 км н/о +6.8 +0.9 66 +4 +4 1009.0 973.3
14 8.12 ЮЗ 1 13 км н/о +6.2 +1.3 71 +5 +5 1009.3 973.5
15 8.12 ЮЗ 2 11 км дым н/о +4.4 +1.1 79 +2 +2 1009.6 973.6
16 8.12 ЮЗ 4 17 км н/о +5.6 +0.2 68 +2 +2 1009.5 973.7
17 8.12 ЮЗ 2 15 км н/о +4.1 -0.5 72 +2 +2 1010.1 974.0
18 8.12 Ю 3 18 км н/о +3.9 -0.9 71 0 0 1010.1 974.0 +2.3 +7.0 0.9
19 8.12 Ю 2 27 км н/о +3.1 -1.7 71 0 0 1009.8 973.6
20 8.12 СВ 1 4000 м дымка н/о +1.3 -1.8 80 -0 -0 1009.4 973.0
21 8.12 ЮЗ 1 3000 м дымка н/о +0.3 -1.6 87 -2 -2 1009.1 972.6
22 8.12 В 2 3600 м дымка н/о +0.7 -1.4 86 -3 -3 1008.6 972.2
23 8.12 С 1 3100 м дымка н/о 0.0 -1.9 87 -2 -2 1008.3 971.8
00 9.12 З 1 3200 м дымка н/о +0.5 -1.1 89 -2 -2 1007.9 971.5
01 9.12 В 1 6000 м дымка н/о +2.1 -0.8 81 +1 +1 1006.9 970.7
02 9.12 ЮЗ 2 13 км н/о +1.1 -1.3 84 -2 -2 1006.3 970.0
03 9.12 З 1 14 км н/о +0.3 -1.8 86 -2 -2 1005.8 969.4
04 9.12 З 2 15 км н/о -0.3 -1.9 89 -4 -4 1004.8 968.4
05 9.12 ЮЗ 2 12 км дымка н/о -0.6 -1.6 93 -4 -4 1003.4 967.0
06 9.12 Ю 2-7
{7}
30 км н/о +2.4 -0.4 82 -1 -1 1001.9 965.9 -0.8 +4.3 0.0
07 9.12 ЮЗ 2
{8}
40 км н/о +3.7 -0.7 73 +1 +1 1001.0 965.2
08 9.12 Ю 5-10
{11}
50 км н/о +5.9 -0.4 64 +2 +2 999.4 964.0
09 9.12 Ю 5-12
{12}
50 км н/о +6.4 +0.1 64 +3 +3 999.3 963.9
10 9.12 Ю 5
{10}
50 км н/о +6.6 +0.3 64 +3 +3 998.7 963.4
11 9.12 Ю 4
{10}
45 км н/о +7.4 +0.4 61 +4 +4 998.1 962.9
12 9.12 Ю 3-8
{12}
25 км н/о +7.7 +0.6 61 +5 +5 997.9 962.7
13 9.12 Ю 3
{8}
30 км ливневой дождь н/о +5.4 +2.2 80 +2 +2 998.6 963.1
14 9.12 Ю 4
{9}
29 км н/о +4.7 +1.2 78 +1 +1 999.3 963.7
15 9.12 Ю 2
{9}
23 км слаб. ливневой дождь н/о +4.4 +1.1 79 +2 +2 1000.2 964.5
16 9.12 Ю 2 20 км в посл. час дождь со снегом н/о +4.7 +1.4 79 +2 +2 1000.0 964.4
17 9.12 ЮЗ 3 30 км н/о +4.9 +1.6 79 +2 +2 999.9 964.3
18 9.12 Ю 4
{9}
21 км туман на расстоянии н/о +5.1 +1.6 78 +1 +1 1000.4 964.8 +2.4 +8.6 0.5
19 9.12 Ю 3 22 км ливневой дождь н/о +4.3 +1.3 81 +1 +1 1000.9 965.2
20 9.12 Ю 2 35 км в посл. час снег н/о +3.6 +0.6 81 +1 +1 1001.4 965.6
21 9.12 Ю 3 35 км в посл. час осадки н/о +4.1 +1.0 80 +1 +1 1001.4 965.7
22 9.12 Ю 3 8000 м дождь н/о +3.7 +1.2 84 -0 -0 1002.1 966.3
23 9.12 ЮЗ 2 24 км ливневой дождь н/о +3.5 +2.0 90 +1 +1 1002.7 966.8
00 10.12 ЮВ 1 8000 м ливневой дождь н/о +3.6 +2.6 93 +2 +2 1003.0 967.1 1
01 10.12 Ю 1 10 км в посл. час дождь со снегом н/о +2.8 +1.9 94 +1 +1 1003.3 967.3
02 10.12 Ю 1 17 км н/о +1.8 +1.1 95 -0 -0 1003.5 967.4
03 10.12 ЮЗ 1 3900 м слаб. ливневой дождь н/о +2.2 +1.5 95 0 0 1003.5 967.4
04 10.12 В 2 9000 м слабый дождь н/о +3.0 +2.6 97 -0 -0 1003.9 967.9
05 10.12 ЮЗ 4
{12}
35 км ливневой дождь н/о +3.3 +1.8 90 -1 -1 1004.7 968.7
06 10.12 Ю 3
{12}
30 км в посл. час дождь со снегом н/о +2.8 +1.3 90 -1 -1 1005.4 969.3 +1.7 +5.2 2
07 10.12 З 5 21 км ливневой дождь н/о +3.7 +0.9 82 -1 -1 1006.2 970.2
08 10.12 З 3-8
{17}
14 км ливневой дождь н/о +3.5 +0.9 83 -0 -0 1007.0 971.0
09 10.12 З 5
{17}
21 км слаб. дождь н/о +2.6 -0.2 82 -3 -3 1008.6 972.4
10 10.12 З 4 30 км слабый дождь н/о +3.1 +0.2 81 -2 -2 1008.4 972.3
11 10.12 З 5 30 км н/о +3.9 -0.3 74 -1 -1 1008.4 972.4
12 10.12 З 5
{17}
12 км ливневой дождь н/о +3.5 -0.3 76 -1 -1 1009.1 973.0 0.4
13 10.12 З 7
{10}
26 км ливневой дождь н/о +2.5 -0.3 82 -4 -4 1009.7 973.5
14 10.12 Ю 1 21 км н/о +2.3 -0.3 83 +1 +1 1010.2 973.9
15 10.12 ЮВ 2
{10}
7000 м дымка н/о +2.2 -0.6 82 -1 -1 1010.2 973.9
16 10.12 ЮЗ 2 8000 м ливневой дождь н/о +1.9 -0.8 82 -1 -1 1010.8 974.4
17 10.12 З 5 15 км н/о +2.5 -1.7 74 -3 -3 1011.1 974.8
18 10.12 ЮЗ 2
{10}
10 км н/о +2.1 -1.7 76 -1 -1 1011.3 974.9 +1.9 +4.6 0.7
19 10.12 ЮЗ 2 5000 м слабый ливневой снег н/о +1.2 -0.6 88 -2 -2 1011.7 975.2
20 10.12 З 2 700 м слабый ливневой снег н/о +0.3 -0.3 96 -3 -3 1012.2 975.6
21 10.12 ЮЗ 1
{7}
2600 м слаб. снег н/о +0.4 0.0 97 -2 -2 1012.3 975.7
22 10.12 ЮВ 1 5000 м слабый ливневой дождь н/о +0.5 +0.1 97 -2 -2 1012.1 975.5
23 10.12 штиль 0 2400 м дымка н/о +0.3 0.0 98 -1 -1 1012.2 975.6
00 11.12 ЮЗ 1
{7}
2600 м слабый ливневой дождь н/о +0.1 -0.2 98 -2 -2 1012.3 975.6 2
01 11.12 ЮЗ 2 10 км слабый ливневой снег н/о +0.2 -0.1 98 -4 -4 1012.3 975.7
02 11.12 Ю 1 7000 м в посл. час переохл. осадки н/о +0.1 -0.3 97 -2 -2 1012.3 975.6
03 11.12 ЮЗ 2 9000 м дымка н/о 0.0 -0.4 97 -4 -4 1012.2 975.5
04 11.12 штиль 0 10 км в посл. час переохл. осадки н/о -0.4 -1.1 95 -2 -2 1011.9 975.2
05 11.12 В 1 8000 м дымка н/о -0.1 -0.7 96 -2 -2 1012.0 975.3
06 11.12 В 2 7000 м в посл. час дождь н/о -0.6 -1.6 93 -4 -4 1012.1 975.4 -0.6 +2.1 2 2
07 11.12 Ю 1 7000 м дымка н/о -0.3 -1.9 89 -2 -2 1012.4 975.7
08 11.12 ЮВ 1 5000 м дымка н/о -0.2 -1.6 90 -2 -2 1012.5 975.8
09 11.12 С 1
{15}
3800 м слаб. снег н/о +0.5 -1.3 88 -1 -1 1012.6 976.0
10 11.12 З 1 4300 м слабый ливневой дождь н/о +1.1 -0.5 89 -1 -1 1012.1 975.6
11 11.12 Ю 1 5000 м ливневой дождь н/о +1.7 -0.2 87 -0 -0 1011.8 975.4
12 11.12 Ю 1
{15}
13 км в посл. час дождь со снегом н/о +2.6 -1.8 73 +1 +1 1011.5 975.2 0.0
13 11.12 ЮВ 1 8000 м дымка н/о +2.9 -1.3 74 +2 +2 1011.5 975.2
14 11.12 ЮВ 1 9000 м н/о +2.4 -1.2 77 +1 +1 1011.9 975.6
15 11.12 Ю 2 2300 м слаб. снег н/о +0.9 -0.7 89 -3 -3 1012.7 976.1
16 11.12 В 1 4800 м слабый дождь н/о +0.8 -0.1 94 -1 -1 1012.7 976.1
17 11.12 Ю 1 1500 м ливневой дождь н/о +0.5 -0.1 96 -2 -2 1013.0 976.4
18 11.12 ЮЗ 1 900 м слабый ливневой снег н/о +0.2 -0.5 95 -2 -2 1013.6 976.9 -0.9 +3.0 0.2
19 11.12 ЮЗ 1 900 м слабый снег н/о -0.1 -0.4 98 -2 -2 1013.9 977.2
20 11.12 З 1 800 м переохл. дождь (гололёд) н/о -0.1 -0.4 98 -2 -2 1014.1 977.4
21 11.12 Ю 1 1000 м слаб. дождь со снегом н/о -0.2 -0.3 99 -2 -2 1014.5 977.7
22 11.12 ЮЗ 1 1200 м переохл. дождь (гололёд) н/о -0.3 -0.4 99 -3 -3 1014.7 977.9
23 11.12 ЮЗ 1 2000 м слабый дождь н/о -0.3 -0.4 99 -3 -3 1014.8 978.0
00 12.12 ЮЗ 1 1200 м слабый снег н/о -0.2 -0.3 99 -2 -2 1015.1 978.3 1
01 12.12 штиль 0 1000 м переохл. дождь (гололёд) н/о -0.1 -0.2 99 -2 -2 1015.5 978.7
02 12.12 штиль 0 1200 м переохл. дождь (гололёд) н/о -0.1 -0.2 99 -2 -2 1015.7 978.9
03 12.12 ЮЗ 1 1200 м слаб. снег н/о -0.1 -0.2 99 -2 -2 1016.0 979.2
04 12.12 Ю 1 1300 м слабый снег н/о -0.1 -0.2 99 -2 -2 1016.4 979.6
05 12.12 Ю 1 1700 м переохл. дождь (гололёд) н/о -0.1 -0.2 99 -2 -2 1016.9 980.1
06 12.12 ЮЗ 1 1000 м слабый снег н/о -0.1 -0.2 99 -2 -2 1017.5 980.6 -0.4 +0.2 3 5
07 12.12 штиль 0 1100 м переохл. дождь (гололёд) н/о -0.1 -0.2 99 -2 -2 1018.1 981.2
08 12.12 штиль 0 900 м переохл. дождь (гололёд) н/о +0.2 +0.1 99 -1 -1 1018.5 981.6
09 12.12 штиль 0 1100 м слаб. дождь со снегом н/о +0.5 +0.4 99 -1 -1 1018.9 982.1
10 12.12 З 1 800 м слабый дождь н/о +0.7 +0.4 98 -1 -1 1019.2 982.4
11 12.12 СЗ 2 4100 м ливневой дождь н/о +0.6 0.0 96 -3 -3 1019.3 982.5
12 12.12 С 2 5000 м дымка н/о +0.9 0.0 94 -3 -3 1019.6 982.8 0.2
13 12.12 С 2 6000 м дымка н/о +0.7 -0.3 93 -3 -3 1020.2 983.3
14 12.12 С 1
{14}
7000 м дымка н/о +0.5 -0.6 92 -2 -2 1020.8 983.9
15 12.12 С 1
{14}
4500 м осадки н/о +0.3 -0.7 93 -2 -2 1021.0 984.1
16 12.12 СЗ 1 2500 м в посл. час переохл. осадки н/о +0.2 -0.5 95 -2 -2 1021.6 984.6
17 12.12 С 1 3100 м дымка н/о +0.2 -0.4 96 -2 -2 1021.8 984.8
18 12.12 СЗ 1
{14}
1900 м ливневой дождь н/о +0.1 -0.2 98 -2 -2 1022.2 985.2 -0.1 +0.9 0.2
19 12.12 СЗ 2 2800 м дымка н/о +0.1 -0.2 98 -4 -4 1022.5 985.5
20 12.12 С 1 5000 м дымка н/о -0.5 -1.3 94 -3 -3 1022.9 985.8
21 12.12 С 1 3900 м дымка н/о -0.9 -1.5 96 -3 -3 1023.2 986.0
22 12.12 З 1 5000 м дымка н/о -0.7 -1.3 96 -3 -3 1023.2 986.0
23 12.12 С 2 5000 м дымка н/о -0.7 -1.4 95 -5 -5 1023.5 986.3
00 13.12 С 2 4600 м дымка н/о -0.6 -1.3 95 -5 -5 1023.2 986.1 0.0
01 13.12 С 1 6000 м дымка н/о -0.8 -1.8 93 -3 -3 1023.3 986.1
02 13.12 З 1 3000 м дымка н/о -0.9 -1.6 95 -3 -3 1023.3 986.1

 

Местоположение метеостанции Nowy Sacz (Польша): широта 49.62 долгота 20.70 высота над уровнем моря 295 м.

В архиве по умолчанию представлена погода в Nowy Sacz за последнюю неделю. Архивные данные за месяц целиком и за предыдущие месяцы, начиная с января 2011 года, Вы можете получить, выбрав интересующий диапазон дат из раскрывающегося списка и нажав кнопку "Ввод!".


*Определитесь, кто Вы:
робот инопланетянин человек

Внимание! Время в таблицах - всемирное. Для получения местного времени необходимо прибавить поправку, которая в Nowy Sacz равна 1 ч.

Смотрите также архив погоды в соседних городах и на ближайших метеорологических станциях:

Погода в Tarnow (Польша) (50 км)
Погода в Lomnicky Stit (Словакия) (58 км)
Погода в Zakopane (Польша) (64 км)
Погода в Kasprowy Wierch (Польша) (68 км)
Погода в Poprad (Словакия) (69 км)
Погода в Poprad-Ganovce (Словакия) (71 км)
Погода в Strbske Pleso (Словакия) (71 км)
Погода в Krosno (Польша) (76 км)
Погода в Liesek (Словакия) (79 км)
Погода в Presov (Словакия) (80 км)

Пояснения к столбцам:

Ветер - указаны скорость ветра в м/с - средняя за 10 мин, порывы в срок и между сроками (в фигурных скобках) и направление, откуда дует ветер: С - северный, СВ - северо-восточный, В - восточный, ЮВ - юго-восточный, Ю - южный, ЮЗ - юго-западный, З - западный, СЗ - северо-западный.
Видимость - горизонтальная дальность видимости в метрах или километрах. При видимости от 1 до 10 км при отсутствии осадков обычно наблюдается дымка, при ухудшении видимости до 1 км и менее - туман. В сухую погоду видимость может ухудшаться дымом, пылью или мглою.
Явления - указаны атмосферные явления, наблюдавшиеся в срок или в последний час перед сроком; фигурными скобками обозначены явления, наблюдавшиеся между сроками (за 1-3 часа до срока); квадратными скобками обозначены град или гололедные отложения с указанием их диаметра в мм.
Облачность - указаны через наклонную черту общая и нижняя облачность в баллах и высота нижней границы облаков в метрах; квадратными скобками обозначены формы облаков: Ci - перистые, Cs - перисто-слоистые, Cc - перисто-кучевые, Ac - высококучевые, As - высокослоистые, Sc - слоисто-кучевые, Ns - слоисто-дождевые, Cu - кучевые, Cb - кучево-дождевые. Подробнее классификацию облаков см. в Атласе облаков (PDF).
T - Температура воздуха - температура, измеренная на высоте 2 м над землей.
Td - Температура точки росы - температура, при понижении до которой содержащийся в воздухе водяной пар достигнет насыщения.
f - Относительная влажность воздуха - влажноcть воздуха, измеренная на высоте 2 м над землей.
Te - Эффективная температура - температура, которую ощущает одетый по сезону человек в тени. Характеристика душности погоды. При расчете учитывается влияние влажности воздуха и скорости ветра на теплоощущения человека.
Tes - Эффективная температура на солнце - температура, которую ощущает человек, с поправкой на солнечный нагрев. Характеристика знойности погоды. Зависит от высоты солнца над горизонтом, облачности и скорости ветра. Ночью, в пасмурную погоду, а также при ветре 12 м/с и более поправка равна нулю.
P - Атмосферное давление - приведенное к уровню моря атмосферное давление.
Po - Атмосферное давление - измеренное на уровне метеостанции атмосферное давление.
Tmin - Минимальная температура - минимум температуры воздуха на высоте 2 м над землей.
Tmax - Максимальная температура - максимум температуры воздуха на высоте 2 м над землей.
R - Количество осадков - Количество выпавших осадков за период времени, мм. При наведении курсора мыши на число - период времени, за который выпало указанное количество осадков.
R24 - Количество осадков - Количество выпавших осадков за 24 часа, мм.
S - Снежный покров - Высота снежного покрова, см. При наведении курсора мыши на число - состояние снежного покрова и степень покрытия местности в баллах.